Location: Ermatingen
(47.6706°N, 9.0857°E)
Time: 09:19:03
(UTC+00:00)

Cosmos 1428 Rocket - Pass Details

Date: 02 December 2021
Orbit: 949 x 987 km, 82.9° (Epoch: 26 January)

Event Time Altitude Azimuth Distance (km) Brightness Sun altitude
Rises 16:05:41 0° 357° (N) 3,634 7.2 -5.5°
Reaches altitude 10° 16:08:28 10° 7° (N) 2,686 6.5 -5.9°
Maximum altitude 16:13:57 33° 70° (ENE) 1,557 5.1 -6.8°
Drops below altitude 10° 16:19:24 10° 133° (SE) 2,686 6.6 -7.6°
Sets 16:22:10 0° 143° (SE) 3,633 7.4 -8.0°
